Hof, Germany

5:13 AM CEST on August 30, 2016 (GMT +0200)
Hof-Plauen

Weather History for EDQM - December, 2012

Change the Weather History Date:

Sunday, December 16, 2012

  Actual Average Record
Temperature  
Mean Temperature 36 °F -  
Max Temperature 38 °F 31 °F 49 °F (2013)
Min Temperature 34 °F 25 °F 10 °F (1997)
Degree Days  
Heating Degree Days 29    
Moisture  
Dew Point 35 °F    
Average Humidity 92    
Maximum Humidity 100    
Minimum Humidity 87    
Precipitation  
Precipitation 0.03 in - - ()
Sea Level Pressure  
Sea Level Pressure 29.75 in    
Wind  
Wind Speed 9 mph ()    
Max Wind Speed 15 mph    
Max Gust Speed -    
Visibility 5.3 miles    
Events Rain    
Averages and records for this station are not official NWS values.
T = Trace of Precipitation, MM = Missing Value Source: Averaged Metar Reports

Daily Weather History Graph

Daily Weather History Graph

Search for Another Location

Airport or City:

Trip Planner

Search our weather history database for the weather conditions in past years. The results will help you decide how hot, cold, wet, or windy it might be!

Date:

Astronomy

Dec. 16, 2012 Rise Set
Actual Time 8:06 AM CET 4:09 PM CET
Civil Twilight 7:28 AM CET 4:48 PM CET
Nautical Twilight 6:46 AM CET 5:30 PM CET
Astronomical Twilight 6:06 AM CET 6:10 PM CET
Moon 10:12 AM CET (12/16) 8:23 PM CET (12/16)
Length of Visible Light 9h 20m
Length of Day
8h 02m
Waxing Crescent, 13% of the Moon is Illuminated
Dec 16
Waxing Crescent
Dec 20
First Quarter
Dec 28
Full
Jan 5
Last Quarter
Jan 11
New

Hourly Weather History & Observations

Time (CET) Temp. Windchill Dew Point Humidity Pressure Visibility Wind Dir Wind Speed Gust Speed Precip Events Conditions
12:00 AM 37 °F - 36 °F 97% 29.80 in 1 mi South 6.7 mph - - Rain Light Rain
12:20 AM 37.4 °F 31.4 °F 35.6 °F 93% 29.74 in 1.7 mi South 8.1 mph - N/A   Overcast
12:50 AM 37.4 °F 32.8 °F 35.6 °F 93% 29.74 in - South 5.8 mph - N/A   Overcast
1:00 AM 37 °F - 36 °F 97% 29.79 in 2 mi South 4.5 mph - - Rain Rain
1:20 AM 37.4 °F 29.8 °F 35.6 °F 93% 29.71 in 4.3 mi SSW 11.5 mph - N/A   Overcast
1:50 AM 37.4 °F 29.3 °F 35.6 °F 93% 29.74 in 5.0 mi SSW 12.7 mph - N/A   Drizzle
2:00 AM 36 °F - 36 °F 100% 29.79 in 3 mi South 2.2 mph - - Rain Light Rain
2:20 AM 37.4 °F 30.3 °F 33.8 °F 87% 29.71 in - SSW 10.4 mph - N/A   Light Drizzle
2:50 AM 37.4 °F 29.8 °F 33.8 °F 87% 29.71 in 3.1 mi SSW 11.5 mph - N/A Rain Light Rain
3:00 AM 37 °F - 37 °F 100% 29.78 in 3 mi SSW 13.4 mph - - Rain Light Rain
3:20 AM 37.4 °F 28.9 °F 35.6 °F 93% 29.71 in 3.1 mi SSW 13.8 mph - N/A Rain Light Rain
3:50 AM 37.4 °F 28.9 °F 35.6 °F 93% 29.71 in 3.7 mi SSW 13.8 mph - N/A Rain Light Rain
4:20 AM 37.4 °F 29.8 °F 35.6 °F 93% 29.71 in - SSW 11.5 mph - N/A Rain Light Rain
4:50 AM 37.4 °F 29.3 °F 35.6 °F 93% 29.71 in 3.1 mi SSW 12.7 mph - N/A Rain Rain
5:00 AM 37 °F - 36 °F 97% 29.77 in 2 mi SSW 8.9 mph - - Rain Heavy Rain
5:20 AM 35.6 °F 26.2 °F 33.8 °F 93% 29.71 in - SSW 15.0 mph - N/A Rain Rain
5:50 AM 35.6 °F 29.2 °F 32.0 °F 87% 29.71 in - SSW 8.1 mph - N/A Rain Rain
6:00 AM 35 °F - 34 °F 93% 29.78 in 3 mi SSW 6.7 mph - - Rain Rain
6:20 AM 35.6 °F 29.2 °F 33.8 °F 93% 29.71 in - SSW 8.1 mph - N/A   Drizzle
6:50 AM 37.4 °F 29.3 °F 35.6 °F 93% 29.71 in 3.1 mi SW 12.7 mph - N/A Rain Light Rain
7:00 AM 36 °F - 36 °F 100% 29.78 in 3 mi SW 11.2 mph - - Rain Light Rain
7:20 AM 37.4 °F 29.3 °F 33.8 °F 87% 29.71 in 6.2 mi SW 12.7 mph - N/A   Overcast
7:50 AM 37.4 °F 28.9 °F 35.6 °F 93% 29.71 in 5.6 mi SW 13.8 mph - N/A   Overcast
8:00 AM 37 °F - 36 °F 97% 29.79 in 9 mi WSW 8.9 mph - - Rain Light Drizzle
8:20 AM 37.4 °F 28.9 °F 33.8 °F 87% 29.74 in 6.2 mi SW 13.8 mph - N/A   Mostly Cloudy
8:50 AM 37.4 °F 29.3 °F 33.8 °F 87% 29.74 in 6.2 mi SW 12.7 mph - N/A   Mostly Cloudy
9:00 AM 37 °F - 36 °F 95% 29.80 in 14 mi SW 11.2 mph - - Rain Light Drizzle
9:20 AM 37.4 °F 28.9 °F 33.8 °F 87% 29.74 in 3.7 mi SSW 13.8 mph - N/A Rain Light Rain
9:50 AM 37.4 °F 28.5 °F 35.6 °F 93% 29.74 in 6.2 mi SW 15.0 mph - N/A   Overcast
10:20 AM 37.4 °F 28.5 °F 35.6 °F 93% 29.74 in 6.2 mi SW 15.0 mph - N/A   Overcast
10:50 AM 37.4 °F 28.9 °F 35.6 °F 93% 29.77 in 4.3 mi SSW 13.8 mph - N/A Rain Rain
11:00 AM 37 °F - 36 °F 96% 29.81 in 9 mi SW 11.2 mph - - Rain Light Rain
11:20 AM 37.4 °F 28.9 °F 33.8 °F 87% 29.74 in 6.2 mi SW 13.8 mph - N/A   Light Drizzle
11:50 AM 37.4 °F 28.5 °F 35.6 °F 93% 29.74 in 6.2 mi SW 15.0 mph - N/A   Mostly Cloudy
12:00 PM 38 °F - 36 °F 91% 29.81 in 12 mi SW 11.2 mph - - Rain Light Rain
12:20 PM 37.4 °F 28.9 °F 33.8 °F 87% 29.74 in 6.2 mi SW 13.8 mph - N/A   Mostly Cloudy
12:50 PM 37.4 °F 28.5 °F 35.6 °F 93% 29.74 in 6.2 mi SW 15.0 mph - N/A   Scattered Clouds
1:00 PM 39 °F - 36 °F 87% 29.80 in 12 mi SW 13.4 mph - - Rain Light Rain
1:20 PM 37.4 °F 29.8 °F 35.6 °F 93% 29.74 in 5.6 mi SW 11.5 mph - N/A Rain Light Rain
1:50 PM 37.4 °F 29.3 °F 35.6 °F 93% 29.74 in 6.2 mi SSW 12.7 mph - N/A   Overcast
2:00 PM 39 °F - 37 °F 89% 29.79 in 12 mi SSW 6.7 mph - - Rain Light Rain
2:20 PM 37.4 °F 29.3 °F 35.6 °F 93% 29.74 in 6.2 mi SSW 12.7 mph - N/A   Overcast
2:50 PM 37.4 °F 28.9 °F 35.6 °F 93% 29.74 in 6.2 mi SSW 13.8 mph - N/A   Mostly Cloudy
3:00 PM 38 °F - 37 °F 94% 29.78 in 12 mi SSW 8.9 mph - - Rain Light Drizzle
3:50 PM 37.4 °F 31.4 °F 33.8 °F 87% 29.74 in 5.6 mi South 8.1 mph - N/A Rain Light Rain
4:20 PM 35.6 °F 29.9 °F 33.8 °F 93% 29.74 in 6.2 mi South 6.9 mph - N/A   Overcast
4:50 PM 35.6 °F 29.9 °F 33.8 °F 93% 29.74 in 6.2 mi SSW 6.9 mph - N/A   Overcast
5:00 PM 36 °F - 35 °F 97% 29.81 in 9 mi SSE 4.5 mph - - Rain Light Drizzle
5:20 PM 35.6 °F 28.6 °F 33.8 °F 93% 29.74 in 3.1 mi SSW 9.2 mph - N/A Rain Light Rain
5:50 PM 35.6 °F 29.2 °F 33.8 °F 93% 29.74 in 2.5 mi SSW 8.1 mph - N/A Rain Light Rain
6:00 PM 36 °F - 36 °F 100% 29.80 in 2 mi South 4.5 mph - - Rain Light Drizzle
6:20 PM 37.4 °F 29.8 °F 35.6 °F 93% 29.74 in 2.8 mi SSW 11.5 mph - N/A Rain Light Rain
6:50 PM 37.4 °F 30.8 °F 35.6 °F 93% 29.74 in 3.7 mi SSW 9.2 mph - N/A   Mostly Cloudy
7:00 PM 38 °F - 37 °F 96% 29.78 in 4 mi SSW 8.9 mph - - Rain Rain
7:20 PM 37.4 °F 29.3 °F 35.6 °F 93% 29.74 in - SSW 12.7 mph - N/A Rain Light Rain
7:50 PM 35.6 °F 27.1 °F 32.0 °F 87% 29.74 in 4.3 mi SW 12.7 mph - N/A Rain Light Rain
8:00 PM 36 °F - 35 °F 95% 29.80 in 4 mi WSW 4.5 mph - - Rain Rain
8:20 PM 35.6 °F 29.2 °F 32.0 °F 87% 29.74 in 3.7 mi SSW 8.1 mph - N/A Rain Light Rain
8:50 PM 35.6 °F 30.7 °F 32.0 °F 87% 29.71 in 3.7 mi South 5.8 mph - N/A Rain Light Rain
9:00 PM 35 °F - 35 °F 100% 29.79 in 5 mi South 4.5 mph - - Rain Light Drizzle
9:20 PM 35.6 °F 30.7 °F 32.0 °F 87% 29.71 in 2.8 mi South 5.8 mph - N/A   Overcast
9:50 PM 35.6 °F 29.9 °F 33.8 °F 93% 29.71 in - SSW 6.9 mph - N/A   Overcast
10:20 PM 37.4 °F 31.4 °F 33.8 °F 87% 29.71 in 6.2 mi SSW 8.1 mph - N/A   Overcast
10:50 PM 37.4 °F 31.4 °F 33.8 °F 87% 29.71 in 6.2 mi SSW 8.1 mph - N/A   Overcast
11:00 PM 36 °F - 36 °F 100% 29.78 in 5 mi SSW 4.5 mph - - Rain Drizzle
11:20 PM 37.4 °F 33.8 °F 33.8 °F 87% 29.71 in 3.7 mi South 4.6 mph - N/A   Overcast
11:50 PM 37.4 °F 29.3 °F 33.8 °F 87% 29.71 in 6.2 mi SSW 12.7 mph - N/A   Mostly Cloudy